Location: Bailleul
(50.3375°N, 2.8513°E)
Time: 16:47:10
(UTC+00:00)

Cosmos 1743 Rocket - Pass Details

Date: 19 April 2021
Orbit: 603 x 634 km, 82.6° (Epoch: 07 May)

Event Time Altitude Azimuth Distance (km) Brightness Sun altitude
Rises 22:32:26 0° 345° (NNW) 2,883 8.3 -26.0°
Reaches altitude 10° 22:34:42 10° 341° (NNW) 1,970 7.2 -26.1°
Enters shadow 22:38:30 49° 287° (WNW) 790 4.2 -26.3°
